FENGYUN 1C DEB, 30646

Orbit data source: Space-Track

FENGYUN 1C DEB, 30646 is space debris in SSO originally from a launch on Mon, 10 May 1999 UTC launched from the Taiyaun Space Center, China (TSC). Fengyun 1C debris stems from the Chinese weather satellite Fengyun-1C, which was intentionally destroyed by a Chinese anti-satellite missile in 2007. This event dramatically increased the amount of space debris, with thousands of trackable fragments posing hazards to satellites and human spaceflight. The Fengyun 1C debris cloud has become a focal point in discussions about space sustainability and the need for international regulations to prevent the creation of new debris.

Loading next visibility...
Identifier
30646, 1999-025APD
Orbit
SSO
Country
Flag of CNCN / PRC
Related business
Manufacturer
Unknown
Mission
Spacecraft
Bus & Motor
Unknown
Mass
Unknown
Launch date (UTC)
1999-05-10 (27 years ago)
Launch vehicle
Unknown
Launch site
Taiyaun Space Center, China (TSC)
Object type
Payload
Rocket body
Debris
Shape & HBR
Unknown shape, 0.1 m
Radar Cross Section
Small (<0.1 m²)

Expand to show TLE details & history
Last TLE update: 1 day ago

TLE from 1 day ago
0 FENGYUN 1C DEB
1 30646U 99025APD 25347.54666023  .00001576  00000-0  91309-3 0  9991
2 30646  98.6518   8.0550 0048210  29.8457 330.5448 14.09654308966161
Epoch: 2025-12-13T13:07Z
TLE epoch observation values (Epoch: 2025-12-13T13:07:11.443Z)
Latitude
-0.00003°
Longitude
88.78495°
Altitude
833.105 km
Speed
7.452 km/s
True Right ascension
00h 32m 13s
True Declination
0° 00' 00"
Sunlit
Object was in daylight at epoch
Visualization orbit readout
Latitude
Unknown
Longitude
Unknown
Altitude
Unknown
Speed
Unknown
Apparent Right ascension
Unknown
Apparent Declination
Unknown
Sunlit
N/A
Visualization observer readout
Local Sidereal Time
16:21:44
Azimuth
Unknown
Elevation
Unknown
Doppler factor
Unknown
Orbital elements
Apogee altitude
892.609 km
Perigee altitude
822.84 km
Semi-major axis
7,235.862 km
Eccentricity
0.00482
Inclination
98.6518°
RAAN
8.055°
Arg. of periapsis
29.8457°
True anomaly
330.27171°
Mean anomaly
330.5448°
Eccentric anomaly
330.4084°
Mean motion
3.52621 °/min
Orbital period
102.09 mins
BSTAR
0.00091309
Loading maneuver chart data...
Computing Atmospheric mass density...

Documentation

Showing up to 5 results
|